Location: Wapato
(46.4478°N, 120.4212°W)
Time: 11:16:59
(UTC+00:00)

Vanguard 3 - All Passes

Search period start: 15 May 2026 00:00
Search period end: 25 May 2026 00:00
Orbit: 507 x 3205 km, 33.4° (Epoch: 14 May)

Date Brightness Start Highest point End Pass type
(mag) Time Alt. Az. Time Alt. Az. Time Alt. Az.
15 May - 00:17:03 10° WSW 00:35:18 51° S 00:48:40 10° ESE daylight
15 May - 02:33:06 10° W 02:48:00 36° SSW 02:58:08 10° SSE daylight
15 May - 04:53:31 10° WSW 04:58:04 12° SW 05:01:59 10° SSW visible
15 May - 18:35:02 10° SSE 18:44:45 18° SE 18:55:18 10° E daylight
15 May - 20:41:01 10° SSW 20:57:02 39° SSE 21:13:11 10° E daylight
15 May - 22:52:46 10° WSW 23:11:09 52° S 23:26:29 10° ESE daylight
16 May - 01:07:32 10° W 01:25:03 47° SSW 01:37:29 10° SE daylight
16 May - 03:24:42 10° W 03:36:42 25° SW 03:45:21 10° S daylight
16 May - 19:20:14 10° SSW 19:33:33 28° SE 19:48:16 10° E daylight
16 May - 21:29:31 10° SW 21:46:49 48° SSE 22:03:27 10° E daylight
16 May - 23:42:43 10° WSW 00:01:13 52° S 00:15:51 10° ESE daylight
17 May - 01:58:24 10° W 02:14:23 38° SSW 02:25:43 10° SSE daylight
17 May - 04:18:12 10° WSW 04:24:52 14° SW 04:30:24 10° SSW visible
17 May - 18:01:56 10° SSE 18:10:52 17° SE 18:20:54 10° E daylight
17 May - 20:07:31 10° SSW 20:22:47 39° SSE 20:39:25 10° E daylight
17 May - 22:18:48 10° WSW 22:36:52 53° S 22:53:19 10° ESE daylight
18 May - 00:33:05 10° W 00:51:05 48° SSW 01:04:46 10° SE daylight
18 May - 02:49:55 10° W 03:03:12 27° SW 03:13:01 10° S daylight
18 May - 18:47:03 10° S 18:59:29 28° SE 19:14:05 10° E daylight
18 May - 20:55:56 10° SW 21:12:29 48° SSE 21:29:51 10° E daylight
18 May - 23:08:37 10° WSW 23:26:59 53° S 23:42:48 10° ESE daylight
19 May - 01:23:50 10° W 01:40:33 39° SSW 01:53:06 10° SE daylight
19 May - 03:43:06 10° W 03:51:30 16° SW 03:58:23 10° SSW daylight
19 May - 17:29:10 10° SSE 17:37:06 16° SE 17:46:14 10° E daylight
19 May - 19:34:17 10° SSW 19:48:36 39° SSE 20:05:25 10° E daylight
19 May - 21:45:04 10° WSW 22:02:31 53° S 22:19:52 10° ESE daylight
19 May - 23:58:50 10° W 00:16:57 49° SSW 00:31:51 10° SE daylight
20 May - 02:15:14 10° W 02:29:31 29° SW 02:40:29 10° SSE daylight
20 May - 18:14:08 10° S 18:25:32 27° SE 18:39:40 10° E daylight
20 May - 20:22:35 10° SW 20:38:11 48° SSE 20:56:00 10° E daylight
20 May - 22:34:45 10° WSW 22:52:39 54° S 23:09:30 10° ESE daylight
21 May - 00:49:26 10° W 01:06:33 40° SSW 01:20:16 10° SE daylight
21 May - 03:08:09 10° W 03:17:57 18° SW 03:26:04 10° SSW daylight
21 May - 16:56:43 10° SSE 17:03:26 15° SE 17:11:18 10° ESE daylight
21 May - 19:01:17 10° SSW 19:14:29 38° SSE 19:31:10 10° E daylight
21 May - 21:11:37 10° WSW 21:28:09 53° S 21:46:11 10° ESE daylight
21 May - 23:24:48 10° W 23:42:41 49° SSW 23:58:41 10° SE daylight
22 May - 01:40:41 10° W 01:55:39 30° SW 02:07:45 10° SSE daylight
22 May - 17:41:27 10° S 17:51:44 26° SE 18:05:03 10° E daylight
22 May - 19:49:30 10° SW 20:03:57 47° SSE 20:21:55 10° E daylight
22 May - 22:01:08 10° WSW 22:18:17 54° S 22:35:58 10° ESE daylight
23 May - 00:15:16 10° W 00:32:24 41° SSW 00:47:12 10° SE daylight
23 May - 02:33:23 10° W 02:44:15 19° SW 02:53:28 10° S daylight
23 May - 16:24:38 10° SSE 16:29:56 13° SE 16:36:07 10° ESE daylight
23 May - 18:28:30 10° SSW 18:40:33 37° SSE 18:56:42 10° E daylight
23 May - 20:38:24 10° WSW 20:53:50 53° S 21:12:15 10° ESE daylight
23 May - 22:51:02 10° W 23:08:21 49° SSW 23:25:17 10° SE daylight
24 May - 01:06:20 10° W 01:21:39 31° SW 01:34:46 10° SSE daylight
24 May - 17:08:58 10° S 17:18:07 24° SE 17:30:18 10° E daylight
24 May - 19:16:37 10° SW 19:29:53 46° SSE 19:47:35 10° E daylight
24 May - 21:27:46 10° WSW 21:43:56 53° S 22:02:11 10° ESE daylight
